![]() |
EMODnet Physics ERDDAP
Easier access to scientific data |
log in|
Brought to you by EMODnet Physics |
| Dataset Title: | NDBC - Collection of dew point temperature (DEWT) TimeSeries - IN SITU MultiPointTimeSeriesObservation
|
| Institution: | NDBC (Dataset ID: TS_DEWT_NDBC) |
| Information: | Summary
| License
| FGDC
| ISO 19115
| Metadata
| Background
| Subset
| Data Access Form
| Make a graph
|
| Name | Last modified | Size | Description | |
|---|---|---|---|---|
| Parent Directory | - | - | ||
| STXA2_TS_DEWT_012018.nc | 27-Oct-2024 23:05 | 439770 | ||
| STXA2_TS_DEWT_012019.nc | 27-Oct-2024 23:05 | 440034 | ||
| STXA2_TS_DEWT_012020.nc | 27-Oct-2024 23:05 | 440137 | ||
| STXA2_TS_DEWT_012021.nc | 27-Oct-2024 23:05 | 439102 | ||
| STXA2_TS_DEWT_012022.nc | 27-Oct-2024 23:05 | 426622 | ||
| STXA2_TS_DEWT_012023.nc | 27-Oct-2024 23:05 | 440173 | ||
| STXA2_TS_DEWT_012024.nc | 27-Oct-2024 23:05 | 440067 | ||
| STXA2_TS_DEWT_012025.nc | 07-Feb-2025 15:22 | 440098 | ||
| STXA2_TS_DEWT_012026.nc | 02-Feb-2026 15:14 | 439222 | ||
| STXA2_TS_DEWT_022018.nc | 27-Oct-2024 23:06 | 439861 | ||
| STXA2_TS_DEWT_022019.nc | 27-Oct-2024 23:06 | 588051 | ||
| STXA2_TS_DEWT_022021.nc | 27-Oct-2024 23:06 | 588063 | ||
| STXA2_TS_DEWT_022022.nc | 27-Oct-2024 23:06 | 437293 | ||
| STXA2_TS_DEWT_022023.nc | 27-Oct-2024 23:06 | 588127 | ||
| STXA2_TS_DEWT_022024.nc | 16-Sep-2024 16:51 | 439860 | ||
| STXA2_TS_DEWT_022025.nc | 16-Mar-2025 09:23 | 440283 | ||
| STXA2_TS_DEWT_022026.nc | 01-Mar-2026 16:37 | 588190 | ||
| STXA2_TS_DEWT_032018.nc | 27-Oct-2024 23:06 | 588002 | ||
| STXA2_TS_DEWT_032019.nc | 27-Oct-2024 23:06 | 588212 | ||
| STXA2_TS_DEWT_032020.nc | 27-Oct-2024 23:06 | 435323 | ||
| STXA2_TS_DEWT_032021.nc | 27-Oct-2024 23:06 | 423831 | ||
| STXA2_TS_DEWT_032022.nc | 27-Oct-2024 23:06 | 440021 | ||
| STXA2_TS_DEWT_032023.nc | 27-Oct-2024 23:06 | 439943 | ||
| STXA2_TS_DEWT_032025.nc | 02-Apr-2025 08:32 | 438396 | ||
| STXA2_TS_DEWT_032026.nc | 21-Mar-2026 19:01 | 587094 | ||
| STXA2_TS_DEWT_042018.nc | 27-Oct-2024 23:06 | 587308 | ||
| STXA2_TS_DEWT_042019.nc | 27-Oct-2024 23:06 | 438361 | ||
| STXA2_TS_DEWT_042020.nc | 27-Oct-2024 23:06 | 587358 | ||
| STXA2_TS_DEWT_042021.nc | 27-Oct-2024 23:06 | 439981 | ||
| STXA2_TS_DEWT_042022.nc | 27-Oct-2024 23:06 | 586957 | ||
| STXA2_TS_DEWT_042023.nc | 27-Oct-2024 23:07 | 587162 | ||
| STXA2_TS_DEWT_042025.nc | 01-May-2025 07:44 | 587194 | ||
| STXA2_TS_DEWT_052018.nc | 27-Oct-2024 23:07 | 587273 | ||
| STXA2_TS_DEWT_052019.nc | 27-Oct-2024 23:07 | 587249 | ||
| STXA2_TS_DEWT_052020.nc | 27-Oct-2024 23:07 | 432371 | ||
| STXA2_TS_DEWT_052021.nc | 27-Oct-2024 23:07 | 437937 | ||
| STXA2_TS_DEWT_052022.nc | 27-Oct-2024 23:07 | 427135 | ||
| STXA2_TS_DEWT_052023.nc | 27-Oct-2024 23:07 | 438548 | ||
| STXA2_TS_DEWT_052025.nc | 01-Jun-2025 09:08 | 438702 | ||
| STXA2_TS_DEWT_062018.nc | 27-Oct-2024 23:07 | 438787 | ||
| STXA2_TS_DEWT_062019.nc | 27-Oct-2024 23:07 | 439061 | ||
| STXA2_TS_DEWT_062020.nc | 27-Oct-2024 23:07 | 438850 | ||
| STXA2_TS_DEWT_062021.nc | 27-Oct-2024 23:07 | 438193 | ||
| STXA2_TS_DEWT_062022.nc | 27-Oct-2024 23:07 | 438713 | ||
| STXA2_TS_DEWT_062023.nc | 27-Oct-2024 23:07 | 439454 | ||
| STXA2_TS_DEWT_062025.nc | 01-Jul-2025 07:33 | 438816 | ||
| STXA2_TS_DEWT_072018.nc | 27-Oct-2024 23:07 | 438741 | ||
| STXA2_TS_DEWT_072019.nc | 27-Oct-2024 23:07 | 438891 | ||
| STXA2_TS_DEWT_072020.nc | 27-Oct-2024 23:07 | 440023 | ||
| STXA2_TS_DEWT_072021.nc | 27-Oct-2024 23:07 | 438761 | ||
| STXA2_TS_DEWT_072022.nc | 27-Oct-2024 23:08 | 440312 | ||
| STXA2_TS_DEWT_072023.nc | 27-Oct-2024 23:08 | 440045 | ||
| STXA2_TS_DEWT_072025.nc | 01-Aug-2025 08:12 | 587245 | ||
| STXA2_TS_DEWT_082018.nc | 27-Oct-2024 23:08 | 440072 | ||
| STXA2_TS_DEWT_082019.nc | 27-Oct-2024 23:08 | 587206 | ||
| STXA2_TS_DEWT_082020.nc | 27-Oct-2024 23:08 | 586956 | ||
| STXA2_TS_DEWT_082021.nc | 27-Oct-2024 23:08 | 437685 | ||
| STXA2_TS_DEWT_082022.nc | 27-Oct-2024 23:08 | 587246 | ||
| STXA2_TS_DEWT_082023.nc | 27-Oct-2024 23:08 | 435013 | ||
| STXA2_TS_DEWT_082025.nc | 01-Sep-2025 09:21 | 587070 | ||
| STXA2_TS_DEWT_092018.nc | 27-Oct-2024 23:08 | 587311 | ||
| STXA2_TS_DEWT_092019.nc | 27-Oct-2024 23:08 | 439598 | ||
| STXA2_TS_DEWT_092020.nc | 27-Oct-2024 23:08 | 437768 | ||
| STXA2_TS_DEWT_092021.nc | 27-Oct-2024 23:08 | 434530 | ||
| STXA2_TS_DEWT_092022.nc | 27-Oct-2024 23:09 | 439972 | ||
| STXA2_TS_DEWT_092023.nc | 27-Oct-2024 23:09 | 439488 | ||
| STXA2_TS_DEWT_092025.nc | 01-Oct-2025 09:57 | 440066 | ||
| STXA2_TS_DEWT_102018.nc | 27-Oct-2024 23:09 | 434247 | ||
| STXA2_TS_DEWT_102019.nc | 27-Oct-2024 23:09 | 440116 | ||
| STXA2_TS_DEWT_102020.nc | 27-Oct-2024 23:09 | 439871 | ||
| STXA2_TS_DEWT_102021.nc | 27-Oct-2024 23:09 | 437642 | ||
| STXA2_TS_DEWT_102022.nc | 27-Oct-2024 23:09 | 440133 | ||
| STXA2_TS_DEWT_102023.nc | 27-Oct-2024 23:09 | 440160 | ||
| STXA2_TS_DEWT_102025.nc | 01-Nov-2025 09:27 | 440176 | ||
| STXA2_TS_DEWT_112018.nc | 27-Oct-2024 23:09 | 440206 | ||
| STXA2_TS_DEWT_112019.nc | 27-Oct-2024 23:09 | 439998 | ||
| STXA2_TS_DEWT_112020.nc | 27-Oct-2024 23:09 | 439424 | ||
| STXA2_TS_DEWT_112021.nc | 27-Oct-2024 23:09 | 420234 | ||
| STXA2_TS_DEWT_112022.nc | 27-Oct-2024 23:09 | 587001 | ||
| STXA2_TS_DEWT_112023.nc | 27-Oct-2024 23:10 | 587123 | ||
| STXA2_TS_DEWT_112024.nc | 17-Jan-2025 21:09 | 587279 | ||
| STXA2_TS_DEWT_112025.nc | 01-Dec-2025 11:29 | 423846 | ||
| STXA2_TS_DEWT_122017.nc | 27-Oct-2024 23:10 | 587252 | ||
| STXA2_TS_DEWT_122018.nc | 27-Oct-2024 23:10 | 440187 | ||
| STXA2_TS_DEWT_122019.nc | 27-Oct-2024 23:10 | 427090 | ||
| STXA2_TS_DEWT_122020.nc | 27-Oct-2024 23:10 | 587265 | ||
| STXA2_TS_DEWT_122021.nc | 27-Oct-2024 23:10 | 587281 | ||
| STXA2_TS_DEWT_122022.nc | 27-Oct-2024 23:10 | 587250 | ||
| STXA2_TS_DEWT_122023.nc | 27-Oct-2024 23:11 | 587328 | ||
| STXA2_TS_DEWT_122024.nc | 22-Jan-2025 20:45 | 439270 | ||
| STXA2_TS_DEWT_122025.nc | 01-Jan-2026 10:52 | 439006 | ||